This is the latest recevied weather packets stored in our database for station/object KJ4EWA. If no packets are shown the sender has not sent any weather packets the latest 10 day(s).
| Time | Temp. | Humidity | Pressure | Rain* | Wind** | Luminosity | Snow |
|---|---|---|---|---|---|---|---|
| 1778092038 | 27.22° C | 89% | 1018.7 hPa | 0 mm | - | 105 W/m² | - |
| 1778091735 | 26.67° C | 90% | 1018.6 hPa | 0 mm | - | 194 W/m² | - |
| 1778091433 | 27.22° C | 89% | 1018.7 hPa | 0 mm | - | 250 W/m² | - |
| 1778091130 | 26.67° C | 90% | 1018.7 hPa | 0 mm | - | 218 W/m² | - |
| 1778090827 | 26.67° C | 90% | 1018.6 hPa | 0 mm | - | 241 W/m² | - |
| 1778090523 | 26.67° C | 91% | 1018.7 hPa | 0 mm | - | 252 W/m² | - |
| 1778090219 | 26.11° C | 91% | 1018.7 hPa | 0 mm | - | 142 W/m² | - |
| 1778089917 | 26.11° C | 92% | 1018.8 hPa | 0 mm | - | 160 W/m² | - |
| 1778089615 | 26.11° C | 91% | 1018.9 hPa | 0 mm | - | 157 W/m² | - |
| 1778089311 | 26.67° C | 91% | 1018.7 hPa | 0 mm | - | 116 W/m² | - |
| 1778089009 | 26.67° C | 89% | 1018.7 hPa | 0 mm | - | 157 W/m² | - |
| 1778088706 | 26.67° C | 89% | 1019 hPa | 0 mm | - | 798 W/m² | - |
| 1778088402 | 26.11° C | 91% | 1019 hPa | 0 mm | - | 262 W/m² | - |
| 1778088099 | 26.11° C | 92% | 1019.3 hPa | 0 mm | - | 180 W/m² | - |
| 1778087792 | 26.11° C | 90% | 1019.2 hPa | 0 mm | - | 160 W/m² | - |
| 1778087489 | 26.67° C | 90% | 1019.2 hPa | 0 mm | - | 459 W/m² | - |
| 1778087186 | 26.67° C | 91% | 1019.1 hPa | 0 mm | - | 289 W/m² | - |
| 1778086883 | 26.11° C | 91% | 1019.2 hPa | 0 mm | - | 295 W/m² | - |
| 1778086581 | 26.11° C | 93% | 1019.4 hPa | 0 mm | - | 287 W/m² | - |
| 1778086272 | 25.56° C | 92% | 1019.4 hPa | 0 mm | - | 259 W/m² | - |
| 1778085969 | 25.56° C | 93% | 1019.5 hPa | 0 mm | - | 184 W/m² | - |
| 1778085667 | 25.56° C | 94% | 1019.5 hPa | 0 mm | - | 182 W/m² | - |
| 1778085362 | 25° C | 94% | 1019.5 hPa | 0 mm | - | 180 W/m² | - |
| 1778085057 | 25° C | 94% | 1019.4 hPa | 0 mm | - | 87 W/m² | - |
| 1778084753 | 25° C | 94% | 1019.5 hPa | 0 mm | - | 91 W/m² | - |
* Rain latest hour (hover to see other rain measurements)
** Current wind speed in m/s (hover to see current wind gust speed)